Regional Weather Roundup
Issued by NWS Northern Indiana

Home | Current Version | Previous Version | Graphics & Text | Print | Product List | Glossary On
Versions: 1 2 3 4 5 6 7 8 9 10 11 12 13 14 15 16 17 18 19 20 21 22 23 24 25 26 27 28 29 30 31 32 33 34 35 36 37 38 39 40 41 42 43 44 45 46 47 48 49 50
000
ASUS43 KIWX 280110
RWRIWX

KIWX WEATHER ROUNDUP
NATIONAL WEATHER SERVICE NORTHERN INDIANA
900 PM EDT THU AUG 27 2015

NOTE: "FAIR" INDICATES FEW OR NO CLOUDS BELOW 12,000 FEET WITH NO
SIGNIFICANT WEATHER AND/OR OBSTRUCTIONS TO VISIBILITY.

* THESE STATIONS ARE NOT UNDER NWS QUALITY CONTROL. THEY ALSO MAY NOT
  REPORT WEATHER SUCH AS PRECIPITATION OR FOG.

INZ001>027-280200-
NORTHERN INDIANA

CITY           SKY/WX    TMP DP  RH WIND       PRES   REMARKS
GARY*          MOCLDY    64  55  72 E5        30.13F
VALPARAISO     PTCLDY    62  58  86 NE5       30.13F
MICHIGAN CITY* PTCLDY    61  55  82 CALM      30.14S
LAPORTE*       PTCLDY    61  58  90 NE3       30.14F
KNOX*          PTCLDY    63  55  77 NE5       30.13S
SOUTH BEND     CLEAR     61  55  81 NE3       30.15F
ELKHART*       CLEAR     59  55  88 CALM      30.16F
GOSHEN         CLEAR     59  55  87 E5        30.15S
MONTICELLO*    PTCLDY    65  60  84 CALM      30.12S
LOGANSPORT*    CLEAR     61  54  77 E3        30.14S
ROCHESTER*     CLEAR     66  59  77 CALM      30.14S
WARSAW*        CLEAR     61  55  82 E5        30.15S
ANGOLA*        CLEAR     57  55  94 CALM      30.17R
FORT WAYNE     PTCLDY    64  56  75 CALM      30.17R
HUNTINGTON*    CLEAR     62  56  80 CALM      30.15S
PERU/GRISSOM   CLEAR     64  58  82 E5        30.13S
MARION*        CLEAR     63  51  65 E5        30.15S

$$
INZ028>050-280200-
CENTRAL INDIANA

CITY           SKY/WX    TMP DP  RH WIND       PRES   REMARKS
LAFAYETTE      MOCLDY    67  58  72 NE5       30.11S
KOKOMO*        CLEAR     63  55  77 E6        30.14S
MUNCIE*        CLEAR     61  58  90 E5        30.15R
INDIANAPOLIS   MOCLDY    71  57  61 S6        30.10F

$$
MIZ043>046-050>051-056>058-064>065-071>073-077>080-280200-
SOUTHWEST LOWER MICHIGAN

CITY           SKY/WX    TMP DP  RH WIND       PRES   REMARKS
BATTLE CREEK   CLEAR     62  54  74 SE7       30.18R
BENTON HARBOR  CLEAR     59  56  89 CALM      30.14F
COLDWATER*     CLEAR     60  56  85 CALM      30.18R
HILLSDALE*     CLEAR     58  56  95 CALM      30.19R
HOLLAND        CLEAR     60  56  86 CALM      30.16S
GRAND RAPIDS   PTCLDY    63  56  78 S5        30.16R
KALAMAZOO      MOCLDY    63  55  75 E3        30.17R
STURGIS*       CLEAR     59  55  88 E3        30.17R
THREE RIVERS*  FAIR      59  56  88 CALM      30.16F

$$
OHZ001>008-015>018-024>025-280200-
NORTHWEST OHIO

CITY           SKY/WX    TMP DP  RH WIND       PRES   REMARKS
WAUSEON*       FAIR      59  57  94 NE5       30.18R
DEFIANCE       CLEAR     65  56  72 NE3       30.17R
FINDLAY        CLEAR     66  57  72 NE8       30.16R
TOLEDO EXPRESS PTCLDY    60  55  83 NE3       30.17R
TOLEDO METCALF CLEAR     63  54  72 CALM      30.18R
LIMA           CLEAR     60  57  89 CALM      30.17R

$$
AND FOR LAKE MICHIGAN COASTAL AND OPEN LAKE BUOY OBSERVATIONS

STATION/POSITION TEMP    WIND        PRES    VSBY  WAVE
                 AIR SEA DIR/SP/G                  HT/PER
                 (F)     (DEG/KT/KT) (MB)    (MI)  (FT/S)
CALUMET HARBOR    67      80/  5/  7   N/A
MICHIGAN CITY     66      50/  6/  6   N/A
BURNS HARBOR      67      80/  4/  6 1020.7F
SAINT JOSEPH      63      CALM  /  1 1021.0S
SOUTH LAKE BUOY   66 69  160/  6/  6 1020.3F         0
4 MI NW BRIDGMAN  66 71  100/  4/  6   N/A           0
MICHIGAN CITY     67 71  110/  8/  8   N/A           0

$$
&&


USA.gov is the U.S. government's official web portal to all federal, state and local government web resources and services.